カタログに戻る

COSMOS 1275 DEB

運用中PO
NORAD 17621·DEBRIS·🇷🇺 Russia

打ち上げ Jun 4, 1981 から Plesetsk Cosmodrome

Loading…

次のパス (今後24時間)

TLE

最新Source: Space-Track

元期: Sep 14, 2026, 01:37 UTC

1 17621U 81053KQ  26257.06759990  .00005253  00000-0  13562-2 0  9995
2 17621  82.7759 134.5638 0029112 346.0630  13.9760 14.49606487120653

AllMySatでCOSMOS 1275 DEBをリアルタイム追跡

Download on the App Store